Starlink 2704

operational
NORAD ID: 48643 Int'l Des: 2021-044 Owner: SPXS Country: US Constellation: starlink
LEOCIRCULARSTARLINK_TYPE

About Starlink 2704

Description loading...

Live Position

Loading 3D Globe...

Upcoming Passes

Altitude History

Altitude vs Time

uPlot chart will show altitude changes over time

Two-Line Element Set

1 48643U 21044F 26035.66668981 .00032850 00000-0 11174-2 0 9996
2 48643 53.1573 267.2465 0001316 90.6379 242.7862 15.30170318 5744
Epoch: Feb 4, 2026 • Age: 14 hours

Current Status

Altitude 492.4 km
Velocity 7.62 km/s
Sub-Earth Point -47.91°S, 15.39°W
Launch Date May 26, 2021
Age 4.6 years
Type internet

Technical Details

Classification Payload
Mass 260.00 kg
Dry Mass 248.00 kg
Total Mass 260.00 kg
Length 0.20 m
Diameter 2.80 m
Span 9.00 m
Shape Box + pan
Manufacturer SPXS
Bus Type Starlink
Phase Status In Orbit
Owner/State SPXS/US

Large Constellations

Loading constellations...